(362353) = 2010 ML89

Discovered at WISE on 2010-06-27 by WISE.

Orbit

Orbit type: Main Belt

Note: WebGL enabled browser required.

epoch2023-09-13.0
epoch JD2460200.5
perihelion date2019-10-08.27961
perihelion JD2458764.77961
argument of perihelion (°)284.01114
ascending node (°)99.23737
inclination (°)7.22065
eccentricity0.1626425
perihelion distance (AU)2.2631760
Tisserand w.r.t. Jupiter3.3
ΔV w.r.t. Earth (km/sec)9.7
semimajor axis (AU)2.7027594
mean anomaly (°)318.46568
mean daily motion (°/day)0.22181600
aphelion distance (AU)3.142
period (years)4.44
P-vector [x]0.91120664
P-vector [y]0.40952474
P-vector [z]0.04463118
Q-vector [x]-0.39282488
Q-vector [y]0.83116184
Q-vector [z]0.39352078
absolute magnitude17.1
phase slope0.15
uncertainty0
referenceMPO 779574
observations used222
oppositions15
arc length (days)10864
first opposition used1994
last opposition used2023
residual rms (arc-secs)0.66
perturbers coarse indicatorM-v
perturbers precise indicator003Ek
first observation date used1994-01-08.0
last observation date used2023-10-07.0
computer nameMPCLINUX
JD of orbit computation2456937.478810
perihelion JD uncertainty (days)1.0383E-04
argument of perihelion uncertainty (°)4.6392E-05
ascending node uncertainty (°)4.0356E-05
inclination uncertainty (°)6.7028E-06
eccentricity uncertainty 5.8401E-08
perihelion distance uncertainty (AU)1.6926E-07
Minimum Orbit Intersection Distances (in AU)
for orbit epoch: 2460200.5, reference: E2023-T91
Mercury1.92296
Venus1.54124
Earth1.27921
Mars0.84183
Jupiter2.33616
Saturn6.37415
Uranus15.3953
Neptune27.5634

Observations

225 total observations over interval: 1994 01 08.32978 – 2023 10 07.261100
These data are available for download (format description).

Date (UT) J2000 RA J2000 Dec Magn Location Ref
1994 01 08.32978 08 28 11.30 +22 44 50.5   691 – Steward Observatory, Kitt Peak-Spacewatch MPS 367204
1994 01 08.36453 08 28 09.35 +22 45 02.7 20.6 V 691 – Steward Observatory, Kitt Peak-Spacewatch MPS 367204
1994 01 08.40002 08 28 07.49 +22 45 15.7   691 – Steward Observatory, Kitt Peak-Spacewatch MPS 367204
2001 10 15.16253 23 35 38.19 -15 26 17.6 20.9   644 – Palomar Mountain/NEAT MPS 367204
2001 10 15.17314 23 35 37.89 -15 26 18.2 20.9   644 – Palomar Mountain/NEAT MPS 367204
2001 10 15.18357 23 35 37.58 -15 26 18.0 20.7   644 – Palomar Mountain/NEAT MPS 367204
2004 04 01.25395 14 14 51.50 -03 00 17.3 22.0 V 291 – LPL/Spacewatch II MPS 367204
2004 04 01.26127 14 14 51.19 -03 00 14.7 22.0 V 291 – LPL/Spacewatch II MPS 367204
2004 04 01.26893 14 14 50.79 -03 00 13.1 22.0 V 291 – LPL/Spacewatch II MPS 367204
2009 05 28.37331 16 42 57.52 -16 46 52.0 20.4 V G96 – Mt. Lemmon Survey MPS 367204
2009 05 28.37873 16 42 57.24 -16 46 52.1 20.6 V G96 – Mt. Lemmon Survey MPS 367204
2009 05 28.38432 16 42 56.88 -16 46 52.1 20.7 V G96 – Mt. Lemmon Survey MPS 367204
2009 05 28.38973 16 42 56.59 -16 46 52.1 20.4 V G96 – Mt. Lemmon Survey MPS 367204
2010 06 27.63885 00 36 35.74 -03 38 53.3   C51 – WISE MPS 337559
2010 06 27.638850 00 36 35.74 -03 38 53.6   C51 – WISE MPS 337559
2010 06 27.771153 00 36 45.58 -03 38 20.3   C51 – WISE MPS 337559
2010 06 27.903457 00 36 55.34 -03 37 47.0   C51 – WISE MPS 337559
2010 06 28.035760 00 37 05.268 -03 37 12.00   C51 – WISE MPS 904189
2010 06 28.168064 00 37 15.01 -03 36 38.7   C51 – WISE MPS 337559
2010 06 28.234153 00 37 19.90 -03 36 23.2   C51 – WISE MPS 337559
2010 06 28.300368 00 37 24.84 -03 36 06.6   C51 – WISE MPS 337559
2010 06 28.36646 00 37 29.72 -03 35 51.6   C51 – WISE MPS 337559
2010 06 28.432671 00 37 34.63 -03 35 32.7   C51 – WISE MPS 337559
2010 06 28.498759 00 37 39.48 -03 35 16.1   C51 – WISE MPS 337559
2010 06 28.564976 00 37 44.45 -03 34 58.9   C51 – WISE MPS 337559
2010 06 28.631064 00 37 49.24 -03 34 43.1   C51 – WISE MPS 337559
2010 06 28.763368 00 37 59.05 -03 34 10.5   C51 – WISE MPS 337559
2010 06 28.895671 00 38 08.81 -03 33 38.0   C51 – WISE MPS 337559
2010 06 29.027976 00 38 18.65 -03 33 02.9   C51 – WISE MPS 337559
2010 06 29.16028 00 38 28.24 -03 32 33.3   C51 – WISE MPS 337559
2010 10 07.27619 00 59 40.70 -07 31 50.9 19.4 V 703 – Catalina Sky Survey MPS 351435
2010 10 07.28316 00 59 40.38 -07 31 50.9 20.0 V 703 – Catalina Sky Survey MPS 351435
2010 10 07.29004 00 59 40.05 -07 31 53.5 20.4 V 703 – Catalina Sky Survey MPS 351435
2010 10 07.29700 00 59 39.58 -07 31 56.5 19.5 V 703 – Catalina Sky Survey MPS 351435
2010 10 12.26647 00 55 34.21 -07 52 16.5 19.0 V 703 – Catalina Sky Survey MPS 351435
2010 10 12.27343 00 55 33.88 -07 52 18.1 19.8 V 703 – Catalina Sky Survey MPS 351435
2010 10 12.28042 00 55 33.49 -07 52 19.4 19.8 V 703 – Catalina Sky Survey MPS 351435
2010 10 12.28734 00 55 33.06 -07 52 21.6 19.9 V 703 – Catalina Sky Survey MPS 351435
2011 01 29.26244 01 33 43.353 +03 50 00.18 22.0 w F51 – Pan-STARRS 1, Haleakala MPS 381261
2011 01 29.26707 01 33 43.740 +03 50 03.10 22.0 w F51 – Pan-STARRS 1, Haleakala MPS 381261
2011 01 29.27230 01 33 44.165 +03 50 06.66 22.0 w F51 – Pan-STARRS 1, Haleakala MPS 381261
2011 01 29.27692 01 33 44.524 +03 50 09.87 22.1 w F51 – Pan-STARRS 1, Haleakala MPS 381261
2012 01 20.35414 10 00 25.81 +19 05 47.0 21.1 V 691 – Steward Observatory, Kitt Peak-Spacewatch MPS 407774
2012 01 20.37209 10 00 25.04 +19 05 54.7 21.0 V 691 – Steward Observatory, Kitt Peak-Spacewatch MPS 407774
2012 01 20.39002 10 00 24.32 +19 06 01.6 20.9 V 691 – Steward Observatory, Kitt Peak-Spacewatch MPS 407774
2012 02 15.34748 09 38 33.153 +21 55 28.84 21.2 w F51 – Pan-STARRS 1, Haleakala MPS 411618
2012 02 15.36135 09 38 32.381 +21 55 33.52 21.0 w F51 – Pan-STARRS 1, Haleakala MPS 411618
2012 02 15.37522 09 38 31.596 +21 55 38.40 21.3 w F51 – Pan-STARRS 1, Haleakala MPS 411618
2012 02 15.38915 09 38 30.803 +21 55 43.22 21.3 w F51 – Pan-STARRS 1, Haleakala MPS 411618
2013 04 17.50412 14 37 32.841 -05 23 02.14 21.1 w F51 – Pan-STARRS 1, Haleakala MPS 464093
2013 04 17.51929 14 37 32.090 -05 22 58.67 21.3 w F51 – Pan-STARRS 1, Haleakala MPS 464093
2013 04 17.54960 14 37 30.594 -05 22 51.22 21.3 w F51 – Pan-STARRS 1, Haleakala MPS 464093
2014 07 03.55146 20 56 24.210 -21 19 59.79 20.6 w F51 – Pan-STARRS 1, Haleakala MPS 522187
2014 07 03.57392 20 56 23.507 -21 20 07.50 20.8 w F51 – Pan-STARRS 1, Haleakala MPS 522187
2014 07 03.58512 20 56 23.158 -21 20 11.36 20.9 w F51 – Pan-STARRS 1, Haleakala MPS 522187
2014 07 08.45288 20 53 44.167 -21 49 09.12 20.2 i F51 – Pan-STARRS 1, Haleakala MPS 523378
2014 07 08.46489 20 53 43.707 -21 49 13.29 20.4 i F51 – Pan-STARRS 1, Haleakala MPS 523378
2014 07 08.47684 20 53 43.263 -21 49 17.95 20.4 i F51 – Pan-STARRS 1, Haleakala MPS 523378
2014 07 25.43259 20 40 49.250 -23 38 34.38 20.1 w F51 – Pan-STARRS 1, Haleakala MPS 525439
2014 07 25.44456 20 40 48.591 -23 38 39.05 20.2 w F51 – Pan-STARRS 1, Haleakala MPS 525439
2014 07 25.46856 20 40 47.260 -23 38 48.29 20.0 w F51 – Pan-STARRS 1, Haleakala MPS 525439
2014 07 27.42686 20 39 02.955 -23 51 19.89 20.2 w F51 – Pan-STARRS 1, Haleakala MPS 525439
2014 07 27.43879 20 39 02.284 -23 51 24.47 20.2 w F51 – Pan-STARRS 1, Haleakala MPS 525439
2014 07 27.45069 20 39 01.618 -23 51 29.03 20.1 w F51 – Pan-STARRS 1, Haleakala MPS 525439
2014 07 27.46259 20 39 00.946 -23 51 33.52 20.1 w F51 – Pan-STARRS 1, Haleakala MPS 525439
2014 07 29.36326 20 37 18.477 -24 03 31.14 19.4 w F51 – Pan-STARRS 1, Haleakala MPS 525439
2014 07 29.38755 20 37 17.101 -24 03 40.40 19.6 w F51 – Pan-STARRS 1, Haleakala MPS 525439
2014 07 29.39971 20 37 16.417 -24 03 44.91 19.7 w F51 – Pan-STARRS 1, Haleakala MPS 525439
2014 07 30.38572 20 36 22.819 -24 09 51.79 20.2 w F51 – Pan-STARRS 1, Haleakala MPS 525439
2014 07 30.39764 20 36 22.138 -24 09 56.28 20.2 w F51 – Pan-STARRS 1, Haleakala MPS 525439
2014 07 30.40955 20 36 21.462 -24 10 00.70 20.0 w F51 – Pan-STARRS 1, Haleakala MPS 525439
2014 07 30.42147 20 36 20.783 -24 10 05.17 20.1 w F51 – Pan-STARRS 1, Haleakala MPS 525439
2014 07 31.36344 20 35 29.529 -24 15 51.27 20.2 w F51 – Pan-STARRS 1, Haleakala MPS 525439
2014 07 31.40066 20 35 27.416 -24 16 05.05 20.1 w F51 – Pan-STARRS 1, Haleakala MPS 525439
2014 08 22.39042 20 17 14.380 -26 03 12.05 20.5 w F51 – Pan-STARRS 1, Haleakala MPS 529646
2014 08 22.40190 20 17 13.899 -26 03 14.32 20.5 w F51 – Pan-STARRS 1, Haleakala MPS 529646
2014 08 22.41334 20 17 13.414 -26 03 16.61 20.6 w F51 – Pan-STARRS 1, Haleakala MPS 529646
2014 09 28.26177 20 12 09.868 -26 31 19.66 21.1 w F51 – Pan-STARRS 1, Haleakala MPS 538776
2014 09 28.27410 20 12 10.149 -26 31 18.61 21.5 w F51 – Pan-STARRS 1, Haleakala MPS 538776
2014 09 28.28641 20 12 10.444 -26 31 17.19 21.2 w F51 – Pan-STARRS 1, Haleakala MPS 538776
2015 12 14.38069 06 33 03.450 +21 34 45.95 20.4 w F51 – Pan-STARRS 1, Haleakala MPS 662570
2015 12 14.39274 06 33 02.744 +21 34 48.77 20.4 w F51 – Pan-STARRS 1, Haleakala MPS 662570
2015 12 14.40481 06 33 02.030 +21 34 51.49 20.5 w F51 – Pan-STARRS 1, Haleakala MPS 662570
2016 01 14.40539 06 02 46.797 +23 23 42.56 20.5 w F51 – Pan-STARRS 1, Haleakala MPS 671558
2016 01 14.41933 06 02 46.098 +23 23 45.04 20.6 w F51 – Pan-STARRS 1, Haleakala MPS 671558
2016 01 14.44712 06 02 44.710 +23 23 49.92 20.5 w F51 – Pan-STARRS 1, Haleakala MPS 671558
2017 03 04.45135 12 48 52.669 +05 47 08.94 21.9 w F51 – Pan-STARRS 1, Haleakala MPS 777505
2017 03 04.46351 12 48 52.204 +05 47 13.37 21.6 w F51 – Pan-STARRS 1, Haleakala MPS 777505
2017 03 04.47571 12 48 51.754 +05 47 17.71 21.5 w F51 – Pan-STARRS 1, Haleakala MPS 777505
2017 03 04.48798 12 48 51.283 +05 47 22.36 21.5 w F51 – Pan-STARRS 1, Haleakala MPS 777505
2017 03 30.36243 12 29 21.096 +08 18 37.21 21.2 w F51 – Pan-STARRS 1, Haleakala MPS 784764
2017 03 30.37483 12 29 20.446 +08 18 41.01 21.3 w F51 – Pan-STARRS 1, Haleakala MPS 784764
2017 03 30.38743 12 29 19.807 +08 18 44.70 21.5 w F51 – Pan-STARRS 1, Haleakala MPS 784764
2017 03 30.40008 12 29 19.170 +08 18 48.53 21.5 w F51 – Pan-STARRS 1, Haleakala MPS 784764
2018 07 04.30037 16 55 45.200 -19 47 51.72 21.1 w F52 – Pan-STARRS 2, Haleakala MPS 904189
